|
NORAD ID: 274 Int'l Code: 1962-010D
Perigee: 2,777.2 km
Apogee: 3,457.2 km
Inclination: 86.7 °
Period: 153.3 minutes
Semi major axis: 9488 km
Launch date: April 9, 1962
Source: United States (US)
Note: This is SATELLITE DEBRIS
Two Line Element Set (TLE):
1 00274U 62010D 13138.51102918 .00000010 00000-0 14060-2 0 3285
2 00274 086.6551 305.0156 0358345 246.5171 144.2050 09.39353943752569
Source:
NASA's NSSDC Master Catalog entry for MIDAS 5 DEB
|